When you browse on this site, cookies collect data to enhance your experience and personalize the content and advertising you see.
Visit our Privacy Policy to learn more. By continuing to use the site, you agree to this use of cookies and data.
  • In Austria
  • List of Countries
  • For 7 days
  • Water Temperature
  • Weather Map
  • News
  • Weather Widgets
  • user-avatar
    Login

    Hourly Weather Trostyanec

    Today, 15 September, Sunday

    Time Temperature Precipitation Wind Pressure Humidity
    00:00 +9°C° 0 mm 2 mps 756 mmHg 77%
    01:00 +9°C° 0 mm 2 mps 756 mmHg 77%
    02:00 +9°C° 0 mm 2 mps 756 mmHg 76%
    03:00 +8°C° 0 mm 2 mps 756 mmHg 75%
    04:00 +8°C° 0 mm 2 mps 756 mmHg 73%
    05:00 +8°C° 0 mm 2 mps 756 mmHg 72%
    06:00 +10°C° 0 mm 3 mps 756 mmHg 67%
    07:00 +11°C° 0 mm 3 mps 756 mmHg 62%
    08:00 +13°C° 0 mm 3 mps 756 mmHg 57%
    09:00 +15°C° 0 mm 4 mps 756 mmHg 52%
    10:00 +17°C° 0 mm 4 mps 756 mmHg 47%
    11:00 +19°C° 0 mm 5 mps 756 mmHg 43%
    12:00 +19°C° 0 mm 5 mps 755 mmHg 41%
    13:00 +19°C° 0 mm 5 mps 755 mmHg 39%
    14:00 +20°C° 0 mm 5 mps 755 mmHg 37%
    15:00 +19°C° 0 mm 4 mps 754 mmHg 38%
    16:00 +18°C° 0 mm 4 mps 754 mmHg 39%
    17:00 +18°C° 0 mm 3 mps 754 mmHg 40%
    18:00 +16°C° 0 mm 3 mps 753 mmHg 43%
    19:00 +14°C° 0 mm 3 mps 753 mmHg 46%
    20:00 +13°C° 0 mm 3 mps 753 mmHg 49%
    21:00 +12°C° 0 mm 3 mps 753 mmHg 52%
    22:00 +12°C° 0 mm 3 mps 752 mmHg 55%
    23:00 +11°C° 0 mm 3 mps 752 mmHg 58%

    Tomorrow, 16 September, Monday

    Time Temperature Precipitation Wind Pressure Humidity
    00:00 +11°C° 0 mm 4 mps 751 mmHg 58%
    01:00 +11°C° 0 mm 4 mps 751 mmHg 59%
    02:00 +11°C° 0 mm 4 mps 751 mmHg 59%
    03:00 +10°C° 0 mm 5 mps 750 mmHg 58%
    04:00 +10°C° 0 mm 5 mps 750 mmHg 57%
    05:00 +10°C° 0 mm 5 mps 749 mmHg 56%
    06:00 +13°C° 0 mm 6 mps 749 mmHg 53%
    07:00 +14°C° 0 mm 6 mps 748 mmHg 50%
    08:00 +15°C° 0 mm 7 mps 748 mmHg 47%
    09:00 +17°C° 0 mm 7 mps 748 mmHg 45%
    10:00 +18°C° 0 mm 7 mps 747 mmHg 44%
    11:00 +21°C° 0 mm 7 mps 747 mmHg 43%
    12:00 +22°C° 0 mm 7 mps 747 mmHg 41%
    13:00 +22°C° 0 mm 7 mps 746 mmHg 39%
    14:00 +23°C° 0 mm 7 mps 746 mmHg 37%
    15:00 +22°C° 0 mm 7 mps 745 mmHg 41%
    16:00 +22°C° 0 mm 6 mps 745 mmHg 45%
    17:00 +21°C° 0 mm 5 mps 745 mmHg 48%
    18:00 +20°C° 0 mm 5 mps 745 mmHg 52%
    19:00 +19°C° 0 mm 4 mps 745 mmHg 55%
    20:00 +18°C° 0 mm 4 mps 745 mmHg 59%
    21:00 +18°C° 0 mm 4 mps 745 mmHg 58%
    22:00 +16°C° 0 mm 5 mps 745 mmHg 56%
    23:00 +16°C° 0 mm 5 mps 745 mmHg 55%

    Day after tomorrow, 17 September, Tuesday

    Time Temperature Precipitation Wind Pressure Humidity
    00:00 +15°C° 0 mm 4 mps 745 mmHg 59%
    01:00 +15°C° 0 mm 4 mps 745 mmHg 63%
    02:00 +14°C° 0 mm 3 mps 745 mmHg 67%
    03:00 +13°C° 0 mm 3 mps 745 mmHg 71%
    04:00 +12°C° 0 mm 3 mps 745 mmHg 76%
    05:00 +11°C° 0 mm 3 mps 745 mmHg 80%
    06:00 +12°C° 0 mm 3 mps 744 mmHg 72%
    07:00 +13°C° 0 mm 4 mps 744 mmHg 65%
    08:00 +14°C° 0 mm 4 mps 744 mmHg 58%
    09:00 +15°C° 0 mm 5 mps 744 mmHg 55%
    10:00 +15°C° 0 mm 5 mps 744 mmHg 52%
    11:00 +16°C° 0 mm 6 mps 744 mmHg 49%
    12:00 +16°C° 0.1 mm 6 mps 744 mmHg 52%
    13:00 +16°C° 0.1 mm 6 mps 743 mmHg 55%
    14:00 +16°C° 0.1 mm 6 mps 743 mmHg 58%
    15:00 +15°C° 0.1 mm 5 mps 743 mmHg 60%
    16:00 +15°C° 0.1 mm 5 mps 743 mmHg 63%
    17:00 +14°C° 0.1 mm 4 mps 742 mmHg 65%
    18:00 +14°C° 0 mm 4 mps 742 mmHg 66%
    19:00 +13°C° 0 mm 3 mps 743 mmHg 66%
    20:00 +13°C° 0 mm 2 mps 743 mmHg 67%
    21:00 +13°C° 0 mm 2 mps 743 mmHg 68%
    22:00 +11°C° 0 mm 3 mps 742 mmHg 69%
    23:00 +11°C° 0 mm 3 mps 742 mmHg 69%

    18 September, Wednesday

    Time Temperature Precipitation Wind Pressure Humidity
    00:00 +10°C° 0 mm 3 mps 742 mmHg 69%
    01:00 +10°C° 0 mm 4 mps 742 mmHg 68%
    02:00 +10°C° 0 mm 4 mps 742 mmHg 68%
    03:00 +9°C° 0.1 mm 5 mps 742 mmHg 70%
    04:00 +8°C° 0.1 mm 5 mps 742 mmHg 73%
    05:00 +8°C° 0.1 mm 6 mps 741 mmHg 75%
    06:00 +9°C° 0.1 mm 6 mps 742 mmHg 72%
    07:00 +9°C° 0.1 mm 7 mps 742 mmHg 69%
    08:00 +10°C° 0.1 mm 8 mps 742 mmHg 66%
    09:00 +11°C° 0.1 mm 9 mps 742 mmHg 58%
    10:00 +12°C° 0.1 mm 9 mps 743 mmHg 50%
    11:00 +13°C° 0.1 mm 10 mps 743 mmHg 43%
    12:00 +13°C° 0 mm 10 mps 743 mmHg 43%
    13:00 +12°C° 0 mm 10 mps 744 mmHg 43%
    14:00 +12°C° 0 mm 10 mps 744 mmHg 43%
    15:00 +11°C° 0 mm 9 mps 744 mmHg 46%
    16:00 +11°C° 0 mm 8 mps 745 mmHg 49%
    17:00 +10°C° 0 mm 7 mps 746 mmHg 52%
    18:00 +9°C° 0 mm 6 mps 746 mmHg 58%
    19:00 +8°C° 0 mm 5 mps 747 mmHg 65%
    20:00 +7°C° 0 mm 4 mps 748 mmHg 71%
    21:00 +7°C° 0 mm 4 mps 748 mmHg 72%
    22:00 +7°C° 0 mm 4 mps 748 mmHg 74%
    23:00 +6°C° 0 mm 4 mps 748 mmHg 76%

    19 September, Thursday

    Time Temperature Precipitation Wind Pressure Humidity
    00:00 +6°C° 0 mm 4 mps 749 mmHg 80%
    01:00 +5°C° 0 mm 4 mps 749 mmHg 83%
    02:00 +5°C° 0 mm 3 mps 749 mmHg 87%
    03:00 +4°C° 0 mm 3 mps 749 mmHg 89%
    04:00 +4°C° 0 mm 3 mps 749 mmHg 90%
    05:00 +4°C° 0 mm 4 mps 749 mmHg 92%
    06:00 +6°C° 0 mm 4 mps 750 mmHg 82%
    07:00 +7°C° 0 mm 4 mps 750 mmHg 73%
    08:00 +10°C° 0 mm 4 mps 750 mmHg 63%
    09:00 +12°C° 0 mm 5 mps 750 mmHg 57%
    10:00 +13°C° 0 mm 5 mps 750 mmHg 50%
    11:00 +15°C° 0 mm 6 mps 750 mmHg 43%
    12:00 +15°C° 0 mm 6 mps 750 mmHg 45%
    13:00 +14°C° 0 mm 6 mps 750 mmHg 46%
    14:00 +14°C° 0 mm 6 mps 749 mmHg 48%
    15:00 +14°C° 0.1 mm 5 mps 749 mmHg 51%
    16:00 +13°C° 0.1 mm 4 mps 749 mmHg 54%
    17:00 +12°C° 0.1 mm 4 mps 749 mmHg 58%
    18:00 +11°C° 0 mm 3 mps 750 mmHg 66%
    19:00 +9°C° 0 mm 3 mps 750 mmHg 75%
    20:00 +8°C° 0 mm 3 mps 750 mmHg 83%
    21:00 +7°C° 0 mm 3 mps 750 mmHg 86%
    22:00 +5°C° 0 mm 3 mps 751 mmHg 89%
    23:00 +5°C° 0 mm 3 mps 751 mmHg 92%

    20 September, Friday

    Time Temperature Precipitation Wind Pressure Humidity
    00:00 +5°C° 0 mm 3 mps 751 mmHg 92%
    01:00 +4°C° 0 mm 3 mps 751 mmHg 92%
    02:00 +4°C° 0 mm 3 mps 751 mmHg 92%
    03:00 +5°C° 0 mm 2 mps 751 mmHg 92%
    04:00 +4°C° 0 mm 2 mps 751 mmHg 92%
    05:00 +4°C° 0 mm 2 mps 751 mmHg 92%
    06:00 +6°C° 0 mm 2 mps 751 mmHg 83%
    07:00 +7°C° 0 mm 2 mps 752 mmHg 74%
    08:00 +9°C° 0 mm 2 mps 752 mmHg 66%
    09:00 +12°C° 0 mm 2 mps 752 mmHg 59%
    10:00 +13°C° 0 mm 2 mps 752 mmHg 52%
    11:00 +15°C° 0 mm 2 mps 752 mmHg 45%
    12:00 +15°C° 0.1 mm 2 mps 752 mmHg 44%
    13:00 +15°C° 0.1 mm 2 mps 751 mmHg 43%
    14:00 +16°C° 0.1 mm 2 mps 751 mmHg 42%
    15:00 +15°C° 0.2 mm 2 mps 751 mmHg 46%
    16:00 +14°C° 0.2 mm 2 mps 751 mmHg 51%
    17:00 +14°C° 0.2 mm 1 mps 751 mmHg 55%
    18:00 +12°C° 0.1 mm 1 mps 751 mmHg 60%
    19:00 +11°C° 0.1 mm 1 mps 751 mmHg 65%
    20:00 +9°C° 0.1 mm 1 mps 752 mmHg 69%
    21:00 +9°C° 0 mm 1 mps 752 mmHg 71%
    22:00 +8°C° 0 mm 1 mps 752 mmHg 74%
    23:00 +6°C° 0 mm 2 mps 752 mmHg 76%
    Show more